Location: Newark
(50.4348°N, 30.5552°E)
Time: 05:16:14
(UTC+00:00)

Altair - Pass Details

Date: 23 January 2020
Orbit: 1502 x 1682 km, 47.2° (Epoch: 25 February)

Event Time Altitude Azimuth Distance (km) Brightness Sun altitude
Rises 04:38:48 0° 171° (S) 4,865 10.5 -10.5°
Reaches altitude 10° 04:44:22 10° 147° (SSE) 3,912 10.5 -9.6°
Maximum altitude 04:48:21 13° 123° (ESE) 3,685 10.9 -9.0°
Drops below altitude 10° 04:52:21 10° 99° (E) 3,943 11.2 -8.4°
Sets 04:57:57 0° 75° (ENE) 4,939 11.1 -7.6°
